Location: Prague
(50.0830°N, 14.4670°E)
Time: 09:51:46
(UTC+02:00)

RS-15 - Pass Details

Date: 09 April 2023
Orbit: 1885 x 2159 km, 64.8° (Epoch: 29 May)

Event Time Altitude Azimuth Distance (km) Brightness Sun altitude
Rises 00:25:18 0° 321° (NW) 5,635 11.3 -31.9°
Reaches altitude 10° 00:28:52 10° 317° (NW) 4,602 10.6 -32.0°
Maximum altitude 00:40:15 54° 245° (WSW) 2,365 8.2 -32.3°
Enters shadow 00:42:20 49° 214° (SW) 2,458 8.1 -32.3°
